Location: Czu?�w
(50.1404°N, 18.9919°E)
Time: 12:02:13
(UTC+00:00)

Cosmos 1400 Rocket - Pass Details

Date: 27 October 2020
Orbit: 521 x 568 km, 81.2° (Epoch: 24 November)

Event Time Altitude Azimuth Distance (km) Brightness Sun altitude
Rises 17:19:12 0° 201° (SSW) 2,754 6.7 -18.2°
Reaches altitude 10° 17:21:25 10° 205° (SSW) 1,859 5.8 -18.6°
Maximum altitude 17:25:27 57° 285° (WNW) 667 3.5 -19.2°
Drops below altitude 10° 17:29:30 10° 5° (N) 1,854 5.5 -19.9°
Sets 17:31:43 0° 10° (N) 2,746 6.3 -20.2°
